User: anonymous   Login
Location: Mohawk View
(42.7837°N, 73.7885°W)
Time: 19:40:36
(UTC+00:00)
Language:

FLOCK 1C 7 - Orbit

View from above orbital plane
View from above orbital plane
View from above satellite
View from above satellite

Ground track
Ground track

The orbit data is extracted from the following two-line orbital elements,

1 40026U 14033S   22015.82801331  .00002533  00000-0  25453-3 0  9994
2 40026  97.9990 324.0843 0010421 181.8905 178.2275 14.92157653411350
Epoch (UTC): 15 January 2022 19:52:20
Eccentricity: 0.0010421
inclination: 97.9990°
perigee height: 584 km
apogee height: 598 km
right ascension of ascending node: 324.0843°
argument of perigee: 181.8905°
revolutions per day: 14.92157653
mean anomaly at epoch: 178.2275°
orbit number at epoch: 41135

The dashed part of the orbit path shows where the satellite is in the earth's shadow,  

DLR